Regional Weather Roundup
Issued by NWS Green Bay, WI

Home | Current Version | Previous Version | Text Only | Print | Product List | Glossary On
Versions: 1 2 3 4 5 6 7 8 9 10 11 12 13 14 15 16 17 18 19 20 21 22 23 24 25 26 27 28 29 30 31 32 33 34 35 36 37 38 39 40 41 42 43 44 45 46 47 48 49 50
000
ASUS43 KGRB 192100
RWRGRB

NORTH-CENTRAL AND NORTHEAST WISCONSIN REGIONAL WEATHER ROUNDUP
NATIONAL WEATHER SERVICE GREEN BAY WI
400 PM CDT THU APR 19 2018

WIZ005-009-010>012-018-019-192200-
NORTH CENTRAL WISCONSIN

CITY           SKY/WX    TMP DP  RH WIND       PRES   REMARKS
IRONWOOD       FAIR      47  10  22 NW9       30.41S
MANITOWISH WTR NOT AVBL
ARBOR VITAE    NOT AVBL
EAGLE RIVER    FAIR      49   1  14 N9        30.36S
LAND O LAKES   FAIR      49   2  15 N10       30.38S
RHINELANDER    FAIR      52   8  17 NW5       30.36F
PHILLIPS       FAIR      49  11  22 N3        30.38S
ANTIGO         NOT AVBL
TOMAHAWK       NOT AVBL
MERRILL          N/A     53  11  18 NW7       30.37S
$$

WIZ013-073-192200-
NORTHEAST WISCONSIN

CITY           SKY/WX    TMP DP  RH WIND       PRES   REMARKS
IRON MOUNTAIN  FAIR      51   8  17 NW16G23   30.33S
MARINETTE      FAIR      47  18  31 SE6       30.35R
$$

WIZ017-030-035>037-045-192200-
CENTRAL WISCONSIN

CITY           SKY/WX    TMP DP  RH WIND       PRES   REMARKS
MEDFORD        NOT AVBL
WAUSAU         FAIR      47  21  35 W14       30.36S
MOSINEE        MOSUNNY   46  21  36 W13       30.39S
MARSHFIELD     FAIR      46  20  35 W10       30.39S
WISC RAPIDS    LGT RAIN  49  17  28 N12       30.41S
STEVENS POINT  NOT AVBL
WAUPACA        FAIR      52  19  26 W14       30.37S
SHAWANO        FAIR      58   5  12 CALM      30.33S
CLINTONVILLE   FAIR      54  10  17 W6        30.34S
WAUTOMA        FAIR      49  17  28 NW12      30.40R
$$

WIZ038-039-048-051-192200-
FOX VALLEY

CITY           SKY/WX    TMP DP  RH WIND       PRES   REMARKS
NWS GREEN BAY  FAIR      49  20  31 SW9       30.35S
APPLETON       MOSUNNY   52  12  20 W6        30.34S
OSHKOSH        FAIR      46  25  43 S7        30.37S
FOND DU LAC    FAIR      47  21  35 SW9       30.38R
$$

WIZ022-050-052-192200-
EAST CENTRAL WISCONSIN

CITY           SKY/WX    TMP DP  RH WIND       PRES   REMARKS
EPHRAIM        NOT AVBL
WASHINGTON ISL NOT AVBL
STURGEON BAY   FAIR      48  10  21 N7        30.35R
MANITOWOC      FAIR      48  20  32 W7        30.36S
SHEBOYGAN      FAIR      47  22  37 W9        30.37R
$$

LMZ563-521-522-541>543-192200-
LAKESHORE

STATION/POSITION TIME  TEMP    WIND        PRES    VSBY  WAVE
                       AIR SEA DIR/SP/G                  HT/PER
                 (UTC) (F)     (DEG/KT/KT) (MB)    (MI)  (FT/S)
SHEBOYGAN LKSHOR 2000   46     350/ 13/ 18 1028.5S
KEWAUNEE LKSHORE 2030   51     330/  6/ 10 1026.6F
NORTHPORT PIER   2040   39                 1027.1S
SISTER BAY LKSHO 2012   55      30/  8/ 12   N/A
MENOMINEE LKSHOR 2030   42     170/  7/  7 1027.0R
$$




USA.gov is the U.S. government's official web portal to all federal, state and local government web resources and services.